Regional Weather Roundup
Issued by NWS Burlington, VT

Current Version | Previous Version | Text Only | Print | Product List | Glossary Off
Versions: 1 2 3 4 5 6 7 8 9 10 11 12 13 14 15 16 17 18 19 20 21 22 23 24 25 26 27 28 29 30 31 32 33 34 35 36 37 38 39 40 41 42 43 44 45 46 47 48 49 50

000
ASUS41 KBTV 200110
RWRBTV
VERMONT REGIONAL WEATHER ROUNDUP
NATIONAL WEATHER SERVICE BURLINGTON VT
900 PM EDT SAT AUG 19 2017

NOTE: "FAIR" INDICATES FEW OR NO CLOUDS BELOW 12,000 FEET WITH NO
SIGNIFICANT WEATHER AND/OR OBSTRUCTIONS TO VISIBILITY.

* THESE REPORTS ARE NOT UNDER NWS QUALITY CONTROL AND/OR DO NOT
  REPORT WEATHER SUCH AS PRECIPITATION AND FOG.

VTZ001>019-200200-
_____VERMONT_____


CITY           SKY/WX    TMP DP  RH WIND       PRES   REMARKS
BURLINGTON     PTCLDY    75  57  53 W8        29.81R
MONTPELIER     MOCLDY    72  60  66 SW9       29.86R
MORRISVILLE    CLOUDY    69  64  84 S3        29.83R
ST. JOHNSBURY*   N/A     69  68  96 MISG      29.79R
LYNDONVILLE*   CLOUDY    67  64  89 W5        29.84R
MIDDLEBURY*    FAIR      67  61  82 CALM      29.83R
RUTLAND*       MOCLDY    73  61  65 SW3       29.85R
SPRINGFIELD    PTCLDY    67  63  87 CALM      29.84R
HIGHGATE*      FAIR      70  60  71 W3        29.80R
NEWPORT*       DRIZZLE   68  64  89 CALM      29.82R
BENNINGTON     CLOUDY    67  64  90 SW3       29.86R
SUTTON*          N/A     64 N/A N/A MISG        N/A

_____LAKE CHAMPLAIN_____


CITY           SKY/WX    TMP DP  RH WIND       PRES   REMARKS
BURTON ISLAND*   N/A    N/A N/A N/A W8          N/A
COLCHESTER RF*   N/A     75  61  60 SW6         N/A
DIAMOND ISL*     N/A     75  59  57 SW6         N/A

$$

NYZ007-026>031-035-052-083-087-200200-
_____NORTHERN NEW YORK_____


CITY           SKY/WX    TMP DP  RH WIND       PRES   REMARKS
PLATTSBURGH    PTCLDY    71  57  61 CALM      29.80R
SARANAC LAKE   MOCLDY    60  59  96 CALM      29.86R
MASSENA        MOCLDY    68  63  84 SW7       29.80R
OGDENSBURG*    FAIR      67  62  85 S3        29.80R
POTSDAM*       MOCLDY    66  66 100 SW6       29.81R
WATERTOWN      CLEAR     69  63  81 SW9       29.83R
FT DRUM        CLEAR     67  61  81 SW8       29.83R
ALBANY         MOCLDY    72  64  76 CALM      29.84R
GLENS FALLS    CLEAR     67  63  87 SW3       29.82R

$$
NHZ002-005-011-200200-
_____NEW HAMPSHIRE_____


CITY           SKY/WX    TMP DP  RH WIND       PRES   REMARKS
LEBANON        PTCLDY    69  63  81 S7        29.82R
KEENE            N/A    N/A N/A N/A MISG        N/A
MT WASHINGTON  FOG       52  52 100 W29G37      N/A  VSB 0
PLYMOUTH       FAIR      68  64  86 CALM      29.81R
WHITEFIELD     PTCLDY    73  61  65 VRB3      29.81R

$$

_____REGIONAL QUEBEC LOCATIONS_____


CITY           SKY/WX    TMP DP  RH WIND       PRES   REMARKS
MONTREAL       PTCLDY    72  61  68 SW12G18   29.77R
QUEBEC CITY    MOCLDY    66  63  88 E3        29.74R
SHERBROOKE     CLOUDY    66  64  94 CALM      29.79R

_____REGIONAL ONTARIO LOCATIONS_____


CITY           SKY/WX    TMP DP  RH WIND       PRES   REMARKS
OTTAWA         MOCLDY    68  63  83 SW9       29.78R

______KEY______
VSB  - VISIBILITY IN MILES
WCI  - WIND CHILL INDEX
HX   - HEAT INDEX
$$
NNNN




USA.gov is the U.S. government's official web portal to all federal, state and local government web resources and services.